TimeCDT,TemperatureF,Dew PointF,Humidity,Sea Level PressureIn,VisibilityMPH,Wind Direction,Wind SpeedMPH,Gust SpeedMPH,PrecipitationIn,Events,Conditions,WindDirDegrees,DateUTC
12:54 AM,82.9,66.9,58,29.83,10.0,SSW,18.4,31.1,N/A,,Clear,200,2013-06-25 05:54:00
1:54 AM,82.9,66.9,58,29.82,10.0,SSW,20.7,27.6,N/A,,Clear,210,2013-06-25 06:54:00
2:54 AM,82.0,66.9,60,29.79,10.0,SSW,23.0,31.1,N/A,,Clear,200,2013-06-25 07:54:00
3:54 AM,82.0,66.0,58,29.75,10.0,SW,10.4,28.8,N/A,,Clear,230,2013-06-25 08:54:00
4:54 AM,82.0,66.0,58,29.79,10.0,SW,12.7,21.9,N/A,,Clear,220,2013-06-25 09:54:00
5:54 AM,81.0,66.9,62,29.81,10.0,SSW,9.2,-,N/A,,Clear,210,2013-06-25 10:54:00
6:54 AM,81.0,66.9,62,29.83,10.0,SW,11.5,-,N/A,,Clear,230,2013-06-25 11:54:00
7:54 AM,80.1,68.0,67,29.83,10.0,SW,9.2,-,N/A,,Clear,220,2013-06-25 12:54:00
8:54 AM,80.1,69.1,69,29.85,10.0,WSW,10.4,-,N/A,,Partly Cloudy,240,2013-06-25 13:54:00
9:54 AM,78.1,71.1,79,29.87,10.0,Calm,Calm,-,0.01,Rain,Light Rain,0,2013-06-25 14:54:00
10:54 AM,77.0,71.1,82,29.81,6.0,SE,5.8,-,0.04,Rain,Light Rain,130,2013-06-25 15:54:00
11:54 AM,80.1,72.0,76,29.83,10.0,South,6.9,-,0.01,,Clear,190,2013-06-25 16:54:00
12:40 PM,82.4,71.6,70,29.82,10.0,South,5.8,-,N/A,,Partly Cloudy,190,2013-06-25 17:40:00
12:54 PM,84.0,72.0,67,29.80,10.0,South,11.5,-,N/A,,Clear,190,2013-06-25 17:54:00
1:54 PM,82.9,71.1,67,29.77,10.0,South,12.7,-,N/A,,Clear,190,2013-06-25 18:54:00
2:54 PM,87.1,71.1,59,29.74,10.0,South,16.1,24.2,N/A,,Clear,180,2013-06-25 19:54:00
3:54 PM,88.0,70.0,55,29.73,10.0,South,20.7,29.9,N/A,,Clear,180,2013-06-25 20:54:00
4:54 PM,89.1,69.1,52,29.71,10.0,SSW,23.0,31.1,N/A,,Clear,200,2013-06-25 21:54:00
5:54 PM,89.1,70.0,53,29.71,10.0,South,17.3,25.3,N/A,,Scattered Clouds,190,2013-06-25 22:54:00
6:54 PM,87.1,69.1,55,29.70,10.0,SSW,11.5,28.8,N/A,,Mostly Cloudy,210,2013-06-25 23:54:00
7:54 PM,86.0,69.1,57,29.71,10.0,SSW,18.4,27.6,N/A,,Mostly Cloudy,200,2013-06-26 00:54:00
8:54 PM,84.0,69.1,61,29.71,10.0,South,13.8,21.9,N/A,,Clear,190,2013-06-26 01:54:00
9:54 PM,82.9,69.1,63,29.72,10.0,South,13.8,21.9,N/A,,Clear,180,2013-06-26 02:54:00
10:54 PM,82.9,69.1,63,29.73,10.0,South,12.7,23.0,N/A,,Clear,180,2013-06-26 03:54:00
11:54 PM,82.0,69.1,65,29.73,10.0,SSW,12.7,18.4,N/A,,Mostly Cloudy,200,2013-06-26 04:54:00